Location: Ferintosh
(52.7647°N, 112.9692°W)
Time: 13:56:32
(UTC+00:00)

Transit 2A Rocket - Pass Details

Date: 23 May 2024
Orbit: 583 x 910 km, 66.7° (Epoch: 14 June)

Event Time Altitude Azimuth Distance (km) Brightness Sun altitude
Rises 14:31:53 0° 283° (WNW) 3,164 7.6 25.9°
Reaches altitude 10° 14:34:45 10° 299° (WNW) 2,305 7.1 26.3°
Maximum altitude 14:38:46 21° 348° (NNW) 1,742 6.9 26.9°
Drops below altitude 10° 14:43:01 10° 37° (NE) 2,468 8.2 27.5°
Sets 14:46:13 0° 53° (NE) 3,456 9.1 28.0°
